| time (UTC) | temp C | wind direction | speed KPH | gust KPH | rain 1hr cm | rain 24hr cm | rain mn cm | humidity % | barometer mb |
| 20260504151010 | 17 | 230 | 4.8 | 9.7 | 0.00 | 0.00 | 0.00 | 52 | 1015.2 |
| 20260504150503 | 17 | 242 | 4.8 | 9.7 | 0.00 | 0.00 | 0.00 | 51 | 1015.2 |
| 20260504141003 | 15 | 304 | 6.4 | 11.3 | 0.00 | 0.00 | 0.00 | 60 | 1015.4 |
| 20260504140503 | 15 | 264 | 6.4 | 16.1 | 0.00 | 0.00 | 0.00 | 60 | 1015.4 |
| 20260504130502 | 13 | 259 | 12.9 | 16.1 | 0.00 | 0.00 | 0.00 | 62 | 1015.8 |
| 20260504110504 | 12 | 224 | 8.0 | 20.9 | 0.00 | 0.00 | 0.00 | 66 | 1016.4 |
| 20260504100503 | 12 | 229 | 14.5 | 30.6 | 0.00 | 0.00 | 0.00 | 65 | 1016.4 |
| 20260504082008 | 12 | 234 | 6.4 | 16.1 | 0.00 | 0.00 | 0.00 | 68 | 1016.5 |
| 20260504081512 | 12 | 211 | 6.4 | 12.9 | 0.00 | 0.00 | 0.00 | 67 | 1016.5 |
| 20260504081006 | 12 | 212 | 3.2 | 12.9 | 0.00 | 0.00 | 0.00 | 69 | 1016.5 |
| 20260504080507 | 12 | 195 | 3.2 | 16.1 | 0.00 | 0.00 | 0.00 | 68 | 1016.5 |
| 20260504050502 | 13 | 206 | 3.2 | 14.5 | 0.00 | 0.00 | 0.00 | 60 | 1016.6 |
| 20260504050009 | 13 | 169 | 4.8 | 16.1 | 0.00 | 0.00 | 0.00 | 60 | 1016.7 |
| 20260504045503 | 13 | 184 | 8.0 | 16.1 | 0.00 | 0.00 | 0.00 | 58 | 1016.6 |
| 20260504045007 | 14 | 165 | 6.4 | 16.1 | 0.00 | 0.00 | 0.00 | 60 | 1016.6 |
| 20260504044519 | 14 | 153 | 3.2 | 12.9 | 0.00 | 0.00 | 0.00 | 62 | 1016.6 |
| 20260504044007 | 14 | 203 | 8.0 | 12.9 | 0.00 | 0.00 | 0.00 | 61 | 1016.7 |
| 20260504043506 | 14 | 162 | 3.2 | 11.3 | 0.00 | 0.00 | 0.00 | 61 | 1016.7 |
| 20260504043027 | 13 | 193 | 4.8 | 12.9 | 0.00 | 0.00 | 0.00 | 63 | 1016.7 |
| 20260504042508 | 13 | 177 | 4.8 | 12.9 | 0.00 | 0.00 | 0.00 | 62 | 1016.7 |
| 20260504042008 | 13 | 157 | 4.8 | 12.9 | 0.00 | 0.00 | 0.00 | 61 | 1016.7 |
| 20260504041524 | 13 | 181 | 6.4 | 12.9 | 0.00 | 0.00 | 0.00 | 63 | 1016.7 |
| 20260504041007 | 14 | 170 | 4.8 | 12.9 | 0.00 | 0.00 | 0.00 | 61 | 1016.7 |
| 20260504040509 | 14 | 193 | 3.2 | 12.9 | 0.00 | 0.00 | 0.00 | 61 | 1016.6 |
| 20260504040012 | 14 | 178 | 4.8 | 11.3 | 0.00 | 0.00 | 0.00 | 61 | 1016.5 |
| 20260504035503 | 14 | 166 | 6.4 | 11.3 | 0.00 | 0.00 | 0.00 | 60 | 1016.5 |
| 20260504035005 | 14 | 179 | 3.2 | 8.0 | 0.00 | 0.00 | 0.00 | 63 | 1016.5 |
| 20260504034511 | 14 | 193 | 3.2 | 8.0 | 0.00 | 0.00 | 0.00 | 62 | 1016.6 |
| 20260504034010 | 14 | 175 | 3.2 | 8.0 | 0.00 | 0.00 | 0.00 | 63 | 1016.6 |
| 20260504033511 | 14 | 173 | 1.6 | 8.0 | 0.00 | 0.00 | 0.00 | 63 | 1016.6 |
| 20260504033019 | 14 | 168 | 3.2 | 11.3 | 0.00 | 0.00 | 0.00 | 61 | 1016.6 |
| 20260504032507 | 14 | 176 | 4.8 | 11.3 | 0.00 | 0.00 | 0.00 | 57 | 1016.5 |
| 20260504032007 | 14 | 196 | 3.2 | 9.7 | 0.00 | 0.00 | 0.00 | 60 | 1016.5 |
| 20260504031521 | 14 | 185 | 3.2 | 12.9 | 0.00 | 0.00 | 0.00 | 59 | 1016.5 |
| 20260504031013 | 14 | 181 | 3.2 | 12.9 | 0.00 | 0.00 | 0.00 | 59 | 1016.4 |
| 20260504030512 | 14 | 185 | 4.8 | 11.3 | 0.00 | 0.00 | 0.00 | 58 | 1016.4 |
| 20260504030020 | 14 | 192 | 6.4 | 11.3 | 0.00 | 0.00 | 0.00 | 58 | 1016.5 |
| 20260504025512 | 14 | 167 | 1.6 | 9.7 | 0.00 | 0.00 | 0.00 | 63 | 1016.4 |
| 20260504025004 | 15 | 187 | 4.8 | 9.7 | 0.00 | 0.00 | 0.00 | 61 | 1016.5 |
| 20260504024514 | 15 | 180 | 1.6 | 6.4 | 0.00 | 0.00 | 0.00 | 60 | 1016.4 |
| 20260504024004 | 15 | 180 | 3.2 | 6.4 | 0.00 | 0.00 | 0.00 | 60 | 1016.4 |
| 20260504023504 | 15 | 190 | 1.6 | 6.4 | 0.00 | 0.00 | 0.00 | 60 | 1016.4 |
| 20260504023003 | 15 | 191 | 3.2 | 8.0 | 0.00 | 0.00 | 0.00 | 60 | 1016.4 |
| 20260504022502 | 15 | 176 | 1.6 | 8.0 | 0.00 | 0.00 | 0.00 | 59 | 1016.5 |
| 20260504022003 | 15 | 191 | 4.8 | 9.7 | 0.00 | 0.00 | 0.00 | 58 | 1016.5 |
| 20260504021503 | 15 | 185 | 4.8 | 9.7 | 0.00 | 0.00 | 0.00 | 58 | 1016.5 |
| 20260504021004 | 15 | 186 | 4.8 | 9.7 | 0.00 | 0.00 | 0.00 | 58 | 1016.4 |
| 20260504020504 | 15 | 195 | 4.8 | 8.0 | 0.00 | 0.00 | 0.00 | 58 | 1016.4 |
| 20260504020003 | 15 | 200 | 3.2 | 6.4 | 0.00 | 0.00 | 0.00 | 58 | 1016.3 |
| 20260504015503 | 15 | 199 | 1.6 | 11.3 | 0.00 | 0.00 | 0.00 | 58 | 1016.3 |
| 20260504015005 | 15 | 199 | 3.2 | 11.3 | 0.00 | 0.00 | 0.00 | 58 | 1016.3 |
| 20260504014508 | 14 | 193 | 6.4 | 9.7 | 0.00 | 0.00 | 0.00 | 59 | 1016.2 |
| 20260504014004 | 14 | 174 | 0.0 | 3.2 | 0.00 | 0.00 | 0.00 | 65 | 1016.2 |
| 20260504013505 | 14 | 174 | 0.0 | 4.8 | 0.00 | 0.00 | 0.00 | 65 | 1016.2 |
| 20260504013017 | 14 | 174 | 1.6 | 4.8 | 0.00 | 0.00 | 0.00 | 64 | 1016.3 |
| 20260504012504 | 14 | 176 | 3.2 | 9.7 | 0.00 | 0.00 | 0.00 | 66 | 1016.2 |
| 20260504012007 | 13 | 181 | 4.8 | 9.7 | 0.00 | 0.00 | 0.00 | 70 | 1016.2 |
| 20260504011508 | 13 | 180 | 0.0 | 4.8 | 0.00 | 0.00 | 0.00 | 67 | 1016.0 |
| 20260504011002 | 13 | 332 | 0.0 | 0.0 | 0.00 | 0.00 | 0.00 | 65 | 1016.0 |
| 20260504010504 | 13 | 332 | 0.0 | 0.0 | 0.00 | 0.00 | 0.00 | 63 | 1015.9 |
| 20260504010005 | 13 | 332 | 0.0 | 0.0 | 0.00 | 0.00 | 0.00 | 62 | 1015.9 |
| 20260504005504 | 13 | 332 | 0.0 | 3.2 | 0.00 | 0.00 | 0.00 | 64 | 1015.8 |
| 20260504005006 | 13 | 332 | 0.0 | 3.2 | 0.00 | 0.00 | 0.00 | 64 | 1015.8 |
| 20260504004506 | 12 | 331 | 0.0 | 3.2 | 0.00 | 0.00 | 0.00 | 63 | 1015.8 |
| 20260504004005 | 12 | 330 | 0.0 | 0.0 | 0.00 | 0.00 | 0.00 | 63 | 1015.8 |
| 20260504003506 | 12 | 330 | 0.0 | 0.0 | 0.00 | 0.00 | 0.00 | 63 | 1015.8 |
| 20260504003006 | 12 | 330 | 0.0 | 0.0 | 0.00 | 0.00 | 0.00 | 60 | 1015.7 |
| 20260504002504 | 13 | 330 | 0.0 | 0.0 | 0.00 | 0.00 | 0.00 | 59 | 1015.6 |
| 20260504002009 | 13 | 331 | 0.0 | 0.0 | 0.00 | 0.00 | 0.00 | 61 | 1015.5 |
| 20260504001516 | 13 | 332 | 0.0 | 0.0 | 0.00 | 0.00 | 0.00 | 60 | 1015.5 |
| 20260504001005 | 13 | 332 | 0.0 | 0.0 | 0.00 | 0.00 | 0.00 | 59 | 1015.4 |
| 20260504000507 | 13 | 331 | 0.0 | 0.0 | 0.00 | 0.00 | 0.00 | 55 | 1015.3 |
| 20260504000003 | 14 | 331 | 0.0 | 0.0 | 0.00 | 0.00 | 0.00 | 55 | 1015.3 |
| 20260503235502 | 15 | 333 | 0.0 | 3.2 | 0.00 | 0.00 | 0.00 | 53 | 1015.3 |
| 20260503235003 | 15 | 330 | 1.6 | 3.2 | 0.00 | 0.00 | 0.00 | 51 | 1015.2 |
| 20260503234506 | 16 | 330 | 1.6 | 3.2 | 0.00 | 0.00 | 0.00 | 49 | 1015.2 |
| 20260503234006 | 16 | 330 | 0.0 | 3.2 | 0.00 | 0.00 | 0.00 | 47 | 1015.2 |
| 20260503233502 | 16 | 330 | 0.0 | 3.2 | 0.00 | 0.00 | 0.00 | 45 | 1015.2 |
| 20260503233005 | 16 | 282 | 0.0 | 6.4 | 0.00 | 0.00 | 0.00 | 43 | 1015.2 |
| 20260503232505 | 16 | 282 | 3.2 | 8.0 | 0.00 | 0.00 | 0.00 | 43 | 1015.1 |
| 20260503232005 | 16 | 276 | 3.2 | 8.0 | 0.00 | 0.00 | 0.00 | 43 | 1015.1 |
| 20260503231514 | 16 | 283 | 4.8 | 8.0 | 0.00 | 0.00 | 0.00 | 45 | 1015.1 |
| 20260503231007 | 16 | 278 | 3.2 | 11.3 | 0.00 | 0.00 | 0.00 | 43 | 1015.0 |
| 20260503230507 | 16 | 276 | 6.4 | 11.3 | 0.00 | 0.00 | 0.00 | 45 | 1015.1 |
| 20260503230012 | 16 | 297 | 4.8 | 11.3 | 0.00 | 0.00 | 0.00 | 41 | 1015.1 |
| 20260503225510 | 16 | 281 | 6.4 | 12.9 | 0.00 | 0.00 | 0.00 | 40 | 1015.1 |
| 20260503225009 | 16 | 278 | 8.0 | 14.5 | 0.00 | 0.00 | 0.00 | 44 | 1015.2 |
| 20260503224506 | 16 | 280 | 9.7 | 14.5 | 0.00 | 0.00 | 0.00 | 43 | 1015.2 |
| 20260503224003 | 16 | 293 | 8.0 | 17.7 | 0.00 | 0.00 | 0.00 | 42 | 1015.2 |
| 20260503223502 | 17 | 306 | 6.4 | 19.3 | 0.00 | 0.00 | 0.00 | 40 | 1015.2 |
| 20260503223004 | 16 | 281 | 6.4 | 19.3 | 0.00 | 0.00 | 0.00 | 41 | 1015.2 |
| 20260503222503 | 16 | 291 | 8.0 | 19.3 | 0.00 | 0.00 | 0.00 | 39 | 1015.2 |
| 20260503222006 | 16 | 321 | 9.7 | 19.3 | 0.00 | 0.00 | 0.00 | 44 | 1015.1 |
| 20260503221508 | 16 | 271 | 9.7 | 17.7 | 0.00 | 0.00 | 0.00 | 42 | 1015.1 |
| 20260503221009 | 16 | 283 | 11.3 | 16.1 | 0.00 | 0.00 | 0.00 | 44 | 1015.2 |
| 20260503220506 | 16 | 324 | 8.0 | 20.9 | 0.00 | 0.00 | 0.00 | 38 | 1015.3 |
| 20260503220014 | 16 | 288 | 6.4 | 22.5 | 0.00 | 0.00 | 0.00 | 40 | 1015.3 |
| 20260503215507 | 16 | 293 | 14.5 | 22.5 | 0.00 | 0.00 | 0.00 | 40 | 1015.5 |
| 20260503215006 | 16 | 260 | 12.9 | 22.5 | 0.00 | 0.00 | 0.00 | 41 | 1015.4 |
| 20260503214521 | 16 | 316 | 9.7 | 24.1 | 0.00 | 0.00 | 0.00 | 42 | 1015.4 |
| 20260503214009 | 16 | 286 | 14.5 | 25.7 | 0.00 | 0.00 | 0.00 | 43 | 1015.4 |
| 20260503213506 | 16 | 276 | 14.5 | 25.7 | 0.00 | 0.00 | 0.00 | 41 | 1015.4 |
| 20260503213003 | 16 | 286 | 14.5 | 25.7 | 0.00 | 0.00 | 0.00 | 41 | 1015.4 |
| 20260503212503 | 16 | 297 | 12.9 | 24.1 | 0.00 | 0.00 | 0.00 | 40 | 1015.4 |
| 20260503212002 | 16 | 257 | 12.9 | 24.1 | 0.00 | 0.00 | 0.00 | 44 | 1015.5 |
| 20260503211507 | 16 | 281 | 16.1 | 22.5 | 0.00 | 0.00 | 0.00 | 41 | 1015.5 |
| 20260503211006 | 16 | 262 | 14.5 | 24.1 | 0.00 | 0.00 | 0.00 | 42 | 1015.4 |
| 20260503210507 | 16 | 281 | 9.7 | 27.4 | 0.00 | 0.00 | 0.00 | 40 | 1015.4 |
| 20260503210010 | 16 | 279 | 16.1 | 27.4 | 0.00 | 0.00 | 0.00 | 42 | 1015.4 |
| 20260503205504 | 16 | 296 | 9.7 | 27.4 | 0.00 | 0.00 | 0.00 | 42 | 1015.4 |
| 20260503205007 | 16 | 290 | 11.3 | 27.4 | 0.00 | 0.00 | 0.00 | 41 | 1015.4 |
| 20260503204519 | 16 | 276 | 12.9 | 30.6 | 0.00 | 0.00 | 0.00 | 42 | 1015.4 |
| 20260503204008 | 16 | 287 | 12.9 | 30.6 | 0.00 | 0.00 | 0.00 | 39 | 1015.4 |
| 20260503203507 | 16 | 278 | 12.9 | 32.2 | 0.00 | 0.00 | 0.00 | 42 | 1015.4 |
| 20260503203021 | 16 | 307 | 19.3 | 32.2 | 0.00 | 0.00 | 0.00 | 41 | 1015.5 |
| 20260503202510 | 16 | 296 | 12.9 | 27.4 | 0.00 | 0.00 | 0.00 | 38 | 1015.5 |
| 20260503202012 | 15 | 321 | 14.5 | 27.4 | 0.00 | 0.00 | 0.00 | 41 | 1015.5 |
| 20260503201506 | 16 | 287 | 17.7 | 25.7 | 0.00 | 0.00 | 0.00 | 43 | 1015.6 |
| 20260503201003 | 16 | 307 | 6.4 | 30.6 | 0.00 | 0.00 | 0.00 | 42 | 1015.8 |
| 20260503200504 | 15 | 350 | 12.9 | 30.6 | 0.00 | 0.00 | 0.00 | 40 | 1015.9 |
| 20260503200008 | 15 | 281 | 14.5 | 22.5 | 0.00 | 0.00 | 0.00 | 41 | 1015.9 |
| 20260503195508 | 15 | 281 | 11.3 | 25.7 | 0.00 | 0.00 | 0.00 | 43 | 1015.9 |
| 20260503195006 | 15 | 269 | 17.7 | 25.7 | 0.00 | 0.00 | 0.00 | 43 | 1016.0 |
| 20260503194514 | 15 | 283 | 16.1 | 25.7 | 0.00 | 0.00 | 0.00 | 44 | 1016.1 |
| 20260503194007 | 15 | 282 | 19.3 | 29.0 | 0.00 | 0.00 | 0.00 | 42 | 1016.2 |
| 20260503193507 | 15 | 271 | 19.3 | 29.0 | 0.00 | 0.00 | 0.00 | 41 | 1016.3 |
| 20260503193020 | 15 | 280 | 12.9 | 25.7 | 0.00 | 0.00 | 0.00 | 44 | 1016.3 |
| 20260503192507 | 15 | 303 | 16.1 | 30.6 | 0.00 | 0.00 | 0.00 | 44 | 1016.5 |
| 20260503192010 | 15 | 339 | 17.7 | 30.6 | 0.00 | 0.00 | 0.00 | 44 | 1016.5 |
| 20260503191531 | 15 | 285 | 11.3 | 25.7 | 0.00 | 0.00 | 0.00 | 44 | 1016.6 |
| 20260503191011 | 15 | 293 | 11.3 | 29.0 | 0.00 | 0.00 | 0.00 | 45 | 1016.5 |
| 20260503190510 | 14 | 274 | 14.5 | 29.0 | 0.00 | 0.00 | 0.00 | 44 | 1016.6 |
| 20260503190007 | 14 | 274 | 17.7 | 25.7 | 0.00 | 0.00 | 0.00 | 46 | 1016.7 |
| 20260503185504 | 14 | 273 | 9.7 | 20.9 | 0.00 | 0.00 | 0.00 | 47 | 1016.9 |
| 20260503185004 | 13 | 267 | 12.9 | 20.9 | 0.00 | 0.00 | 0.00 | 46 | 1016.8 |
| 20260503184511 | 14 | 281 | 11.3 | 17.7 | 0.00 | 0.00 | 0.00 | 45 | 1016.9 |
| 20260503184007 | 14 | 280 | 11.3 | 24.1 | 0.00 | 0.00 | 0.00 | 53 | 1017.0 |
| 20260503183508 | 13 | 278 | 11.3 | 24.1 | 0.00 | 0.00 | 0.00 | 46 | 1017.0 |
| 20260503183012 | 13 | 263 | 17.7 | 25.7 | 0.00 | 0.00 | 0.00 | 48 | 1017.0 |
| 20260503182507 | 13 | 266 | 17.7 | 25.7 | 0.00 | 0.00 | 0.00 | 48 | 1017.0 |
| 20260503182010 | 13 | 260 | 16.1 | 25.7 | 0.00 | 0.00 | 0.00 | 47 | 1016.9 |
| 20260503181518 | 13 | 270 | 16.1 | 24.1 | 0.00 | 0.00 | 0.00 | 46 | 1017.0 |
| 20260503181011 | 13 | 284 | 14.5 | 29.0 | 0.00 | 0.00 | 0.00 | 49 | 1016.9 |
| 20260503180515 | 13 | 304 | 16.1 | 30.6 | 0.00 | 0.00 | 0.00 | 48 | 1017.0 |
| 20260503180032 | 13 | 280 | 17.7 | 30.6 | 0.00 | 0.00 | 0.00 | 46 | 1017.0 |
| 20260503175510 | 13 | 1 | 11.3 | 22.5 | 0.00 | 0.00 | 0.00 | 45 | 1017.1 |
| 20260503175004 | 13 | 297 | 8.0 | 22.5 | 0.00 | 0.00 | 0.00 | 48 | 1017.2 |
| 20260503174507 | 13 | 285 | 12.9 | 24.1 | 0.00 | 0.00 | 0.00 | 52 | 1017.3 |
| 20260503174006 | 13 | 294 | 14.5 | 27.4 | 0.00 | 0.00 | 0.00 | 48 | 1017.2 |
| 20260503173507 | 13 | 301 | 12.9 | 27.4 | 0.00 | 0.00 | 0.00 | 49 | 1017.3 |
| 20260503173014 | 13 | 271 | 11.3 | 25.7 | 0.00 | 0.00 | 0.00 | 50 | 1017.2 |
| 20260503172501 | 13 | 314 | 8.0 | 25.7 | 0.00 | 0.00 | 0.00 | 49 | 1017.3 |
| 20260503172002 | 13 | 283 | 11.3 | 29.0 | 0.00 | 0.00 | 0.00 | 46 | 1017.4 |
| 20260503171503 | 13 | 276 | 14.5 | 29.0 | 0.00 | 0.00 | 0.00 | 45 | 1017.5 |
| 20260503171003 | 12 | 272 | 12.9 | 30.6 | 0.00 | 0.00 | 0.00 | 49 | 1017.5 |
| 20260503170503 | 13 | 278 | 12.9 | 30.6 | 0.00 | 0.00 | 0.00 | 45 | 1017.7 |